Latest METARs, TAFs and NOTAMs for MYNN


---------------------------------------------------------------------------
	(OBSERVATIONS)
MYNN 211400Z 03011KT 9999 VCSH SCT018TCU 31/25 A3008 RMK VCSH/TCU
    NE--S=
MYNN 211300Z 04007KT 9999 SCT022 31/25 A3006=
MYNN 211200Z 04004KT 99999 FEW022 30/25 A3004=
---------------------------------------------------------------------------
	(TERMINAL AREA FORECAST)
MYNN 211045Z 2112/2212 07007KT 9999 VCSH SCT018 PROB40 TEMPO
    2118/2200 08012KT 9000 TSRA SCT012 SCT015CB BKN240=
---------------------------------------------------------------------------
	(NOTAMS)


MYNN A0068/13 VOR Y RWY 14 FEEDER RTE FM MAJUR TO MUNIE NOT AVBL
    VOR Y RWY 14 FEEDER RTE FM MELON TO MUNIE NOT AVBL. SFC -
    UNL, 19 APR 19:55 2013 UNTIL PERM. CREATED: 19 APR 19:51
    2013

MYNN A0069/13 VOR Y RWY 09 FEEDER RTE FM MAJUR TO MUSSE NOT AVBL
    REMOVE PROCEDURE NOTE 'RADAR REQUIRED' FM APP CHART. SFC
    - UNL, 19 APR 19:55 2013 UNTIL PERM. CREATED: 19 APR 19:52
    2013

MYNN A0070/13 VOR Y RWY 32 FEEDER RTE FM PRUNE TO WELKS NOT AVBL
    REMOVE PROCEDURE NOTE 'RADAR REQUIRED' FM APP CHART. SFC
    - UNL, 19 APR 19:55 2013 UNTIL PERM. CREATED: 19 APR 19:54
    2013

MYNN A0094/17 PAPI LGTS RWY 27 U/S. 12 MAY 15:00 2017 UNTIL 31
    AUG 23:59 2017 ESTIMATED. CREATED: 12 MAY 14:22 2017

MYNN A0108/15 INFORMATION LISTED IN AIC 3/2015 WITH THE EXCEPTION
    OF MYNN AND MYGF RNAV APCH PROC IN THE BAHAMAS ARE NOT AUTH
    DUE TO AIRSPACE CLASSIFICATION RESTRICTIONS. 01 JUN 18:00
    2015 UNTIL PERM. CREATED: 01 JUN 16:52 2015

MYNN A0168/17 ATS WILL ONLY ACCEPT NON-CLOSURE PLN'S TO MYSM
    MYCA MYCX MYCH MYCB MYAP MYCI MYCP MYMM MYRP MYLD MYLS DUE
    TO LACK OF COM. 28 JUL 20:00 2017 UNTIL 31 OCT 23:59 2017.
    CREATED: 28 JUL 15:53 2017

MYNN A0172/17 CHECKLIST (A) SERIES YEAR=2010 0277 YEAR=2013 0068
    0069 0070 YEAR=2015 0108 YEAR=2016 0209 0221 0266 0291 0316
    YEAR=2017 0065 0067 0068 0069 0070 0071 0072 0073 0075 0076
    0077 0078 0079 0091 0094 0102 0106 0119 0135 0137 0154 0155
    0156 0157 0158 0159 0160 0161 0162 0163 0164 0165 0166 0167
    0168 0169 0170 LATEST PUBLICATIONS AIP AMDT 01/16 EFFECTIVE
    MAY 26, 2016 AIC 03/16. 28 JUL 20:30 2017 UNTIL 31 AUG 23:59
    2017. CREATED: 28 JUL 16:21 2017

MYNN A0316/16 WIE THE DEPARTMENT OF CIVIL AVIATION BANS ALL SAMSUNG
    GALAXY NOTE 7 PHONES FROM ACFT TRAVELLING IN THE BAHAMAS.
    DEVICES MAY NOT BE TRANSPORTED BY PASSENGERS OR CREW ON THEIR
    PERSON, IN CARRY-ON BAGGAGE, OR IN CHECKED BAGGAGE ON FLIGHTS
    TO, FROM, OR WITHIN THE COMMONWEALTH OF THE BAHAMAS AND CANNOT
    BE SHIPPED AS AIR CARGO. 20 OCT 15:30 2016 UNTIL PERM. CREATED:
    20 OCT 15:12 2016

MYNN B0011/17 CHECKLIST (B) SERIES YEAR=2016 0024 0028 LATEST
    PUBLICATIONS AIP AMDT 01/16 EFFECTIVE MAY 26, 2016 AIC 03/16.
    28 JUL 20:00 2017 UNTIL 31 AUG 23:59 2017. CREATED: 28 JUL
    16:27 2017

---------------------------------------------------------------------------